SCOUT A DEB

基本信息
目录编号:
3591
目录名称:
SCOUT A DEB
国际标识:
1966-041E
轨道中心:
EARTH
物体状态:
在轨
发射日期:
1966-05-19 UTC
轨道信息
数据来源: 国际轨道数据
星历时间: 2026-07-14T00:02:52+0800
半长轴: 7257.811km
偏心率: 0.008728
轨道倾角: 90.216°
近地点辐角: 48.139°
升交点赤经: 83.175°
平近点角: 312.720°
近地点: 816.327km
远地点: 943.021km
周期: 102.558分钟
每日圈数: 14.040879
详细信息
发射场:
AFWTR
轨道高度:
LEO
数据来源:
AOE Integration Group
参考系:
TEME
时间系统:
UTC
历元类型:
SGP4
2D轨道图
3D轨道图
轨道高度分析图
轨道倾角分析图
轨道综合分析图
查看轨道综合分析图